User: anonymous   Login
Location: Friaudour
(46.0460°N, 1.2873°E)
Time: 22:46:28
(UTC+00:00)
Language:

Lacrosse 5 - Orbit

View from above orbital plane
View from above orbital plane
View from above satellite
View from above satellite

Ground track
Ground track

The orbit data is extracted from the following two-line orbital elements,

1 28646U 05016A   20271.10847828 0.00000000  00000-0  00000-0 0    01
2 28646  57.0148 336.5260 0004394  72.1749 287.8251 14.52053347    05
Epoch (UTC): 27 September 2020 02:36:12
Eccentricity: 0.0004394
inclination: 57.0148°
perigee height: 716 km
apogee height: 722 km
right ascension of ascending node: 336.5260°
argument of perigee: 72.1749°
revolutions per day: 14.52053347
mean anomaly at epoch: 287.8251°
orbit number at epoch: 0

The dashed part of the orbit path shows where the satellite is in the earth's shadow,  

DLR